Regional Weather Roundup
Issued by NWS

Home | Current Version | Previous Version | Graphics & Text | Print | Product List | Glossary On
Versions: 1 2 3 4 5 6 7 8 9 10 11 12 13 14 15 16 17 18 19 20 21 22 23 24 25 26 27 28 29 30 31 32 33 34 35 36 37 38 39 40 41 42 43 44 45 46 47 48 49 50
000
ASUS45 KPSR 171910
RWRAZ

ARIZONA REGIONAL HOURLY WEATHER ROUNDUP
NATIONAL WEATHER SERVICE PHOENIX AZ
1200 PM MST THU APR 17 2014

NOTE: FAIR INDICATES FEW OR NO CLOUDS BELOW 12,000 FEET WITH NO
SIGNIFICANT WEATHER AND/OR OBSTRUCTIONS TO VISIBILITY.

AZZ001>003-036-172000-
NORTHWEST ARIZONA

CITY           SKY/WX    TMP DP  RH WIND       PRES   REMARKS
BULLHEAD CITY  SUNNY     88  21   8 S12       29.86F
KINGMAN        SUNNY     82  15   8 SW23      29.97F
$$

AZZ004>008-015-016-018-172000-
NORTH CENTRAL ARIZONA

CITY           SKY/WX    TMP DP  RH WIND       PRES   REMARKS
GRAND CANYON   SUNNY     66  17  15 VRB6G21   30.14F
WILLIAMS       SUNNY     66  16  14 W8        30.20F
PRESCOTT       SUNNY     73  20  13 VRB5      30.07F
FLAGSTAFF      SUNNY     65  21  18 S12G20    30.15F
PAYSON         SUNNY     73  19  13 VRB6      30.11S
PAGE           SUNNY     68  26  20 N7        30.05F
$$

AZZ009>014-017-172000-
NORTHEAST ARIZONA

CITY           SKY/WX    TMP DP  RH WIND       PRES   REMARKS
WINSLOW        SUNNY     72  22  15 VRB7      30.09F
SAINT JOHNS    SUNNY     68  20  16 S3        30.11F
WINDOW ROCK    SUNNY     65  20  17 VRB3      30.14F
SHOW LOW       SUNNY     64  19  17 E5G17     30.17F
$$

AZZ023-172000-
GREATER PHOENIX AREA

CITY           SKY/WX    TMP DP  RH WIND       PRES   REMARKS
PHOENIX        MOSUNNY   85  19   9 CALM      29.90F
BUCKEYE          N/A     84  25  11 SE9       29.91F
GLENDALE       MOSUNNY   82  23  11 VRB3      29.92F
LUKE AFB       NOT AVBL
DEER VALLEY    SUNNY     83  15   8 VRB3      29.92F
SCOTTSDALE     SUNNY     83  21  10 SW8       29.94F
MESA-FALCON    SUNNY     84  21  10 S9        29.92
MESA-GATEWAY   SUNNY     84  21  10 SW3       29.94F
CHANDLER       SUNNY     84  23  10 SW8       29.92F
$$

AZZ027-028-172000-
SOUTHWEST MARICOPA COUNTY AND PINAL COUNTY

CITY           SKY/WX    TMP DP  RH WIND       PRES   REMARKS
CASA GRANDE    SUNNY     84  27  12 CALM      29.93F
GILA BEND      CLEAR     88  21   8 VRB3      29.91F
$$

AZZ503-504-507>509-172000-
SOUTHEAST ARIZONA

CITY           SKY/WX    TMP DP  RH WIND       PRES   REMARKS
TUCSON         SUNNY     83  17   8 CALM      29.97F
DAVIS-MONTHAN  SUNNY     83  21  10 NW5       29.96F
RYAN FIELD       N/A     84  23  10 N6        29.96F
NOGALES        SUNNY     80  21  11 VRB6G16   30.01F
SIERRA VISTA   SUNNY     79  18  10 SE12      30.07F
DOUGLAS        SUNNY     78  18  10 E8        30.06F
SAFFORD        SUNNY     80  16   9 VRB3      29.98F
$$

AZZ020-021-025-026-031-172000-
SOUTHWEST ARIZONA

CITY           SKY/WX    TMP DP  RH WIND       PRES   REMARKS
YUMA           MOSUNNY   87  28  12 SE13G20   29.87F
$$

CAZ031-033-041-043-047-048-061-172000-
SOUTHERN CALIFORNIA

CITY           SKY/WX    TMP DP  RH WIND       PRES   REMARKS
DOWNTOWN L.A.  PTSUNNY   68  53  58 CALM      29.91S
L.A. AIRPORT   PTSUNNY   66  52  59 SE6       29.92F
SAN DIEGO      CLOUDY    63  52  67 SE5       29.94S
BURBANK        PTSUNNY   67  51  56 SE9       29.90S
ONTARIO        PTSUNNY   66  53  63 W8        29.90F
RIVERSIDE      PTSUNNY   69  53  56 VRB6      29.90S
PALM SPRINGS   MOSUNNY   80  41  24 S3        29.89F
EL CENTRO NAS  PTSUNNY   81  55  40 CALM      29.85F
IMPERIAL       MOSUNNY   82  58  43 SE9       29.84F
BLYTHE         SUNNY     87  32  14 S17       29.86F
NEEDLES        SUNNY     90  15   6 VRB3      29.86F
$$

NVZ020-UTZ003-172000-
SOUTHERN NEVADA-UTAH

CITY           SKY/WX    TMP DP  RH WIND       PRES   REMARKS
LAS VEGAS      MOSUNNY   81  24  12 VRB5      29.86F
SALT LAKE CITY MOSUNNY   69  21  16 S16       30.02F
$$

NMZ009-TXZ055-172000-
NEW MEXICO-WEST TEXAS

CITY           SKY/WX    TMP DP  RH WIND       PRES   REMARKS
ALBUQUERQUE    CLOUDY    62  22  21 CALM      30.15F
EL PASO        SUNNY     75  19  12 VRB5      30.07F
$$


........................KEY........................
SKY/WX - SKY CONDITION/WEATHER
TMP    - TEMPERATURE IN FAHRENHEIT
DP     - DEW POINT IN FAHRENHEIT
RH     - RELATIVE HUMIDITY IN PERCENT
WIND   - DIRECTION AND SPEED IN MILES PER HOUR (MPH)
VRB    - VARIABLE WIND DIRECTION
PRES   - MEAN SEA LEVEL PRESSURE IN INCHES OF MERCURY
         F - FALLING PRESSURE   R - RISING PRESSURE
         S - STEADY PRESSURE
VSB    - VISIBILITY IN MILES
HX     - HEAT INDEX IN FAHRENHEIT
WCI    - WIND CHILL INDEX IN FAHRENHEIT
TC     - TEMPERATURE IN CELSIUS WHICH IS ALSO KNOWN AS
         TEMPERATURE IN CENTIGRADE
AFB    - AIR FORCE BASE
         LUKE AFB IS LUKE AIR FORCE BASE
         DAVIS-MONTHAN IS DAVIS-MONTHAN AIR FORCE BASE
NAS    - NAVAL AIR STATION
         EL CENTRO NAS IS EL CENTRO NAVAL AIR STATION
N/A    - NOT AVAILABLE



USA.gov is the U.S. government's official web portal to all federal, state and local government web resources and services.